When you browse on this site, cookies collect data to enhance your experience and personalize the content and advertising you see.
Visit our Privacy Policy to learn more. By continuing to use the site, you agree to this use of cookies and data.
  • In Schweiz
  • Länderverzeichnis
  • Für 7 Tage
  • Wassertemperatur
  • Wetterkarte
  • Widgets
  • user-avatar
    Anmelden

    Stündliche Wetter Plavneve

    Heute, 25 August, Sonntag

    Zeit Temperatur Niederschläge Wind Luftdruck Luftfeuchtigkeit
    00:00 +26°C° 0 mm 5 m/S 763 mmHg 54%
    01:00 +26°C° 0 mm 5 m/S 763 mmHg 56%
    02:00 +25°C° 0 mm 5 m/S 763 mmHg 58%
    03:00 +25°C° 0 mm 4 m/S 763 mmHg 59%
    04:00 +23°C° 0 mm 4 m/S 763 mmHg 61%
    05:00 +22°C° 0 mm 4 m/S 763 mmHg 62%
    06:00 +25°C° 0 mm 4 m/S 763 mmHg 57%
    07:00 +26°C° 0 mm 5 m/S 763 mmHg 52%
    08:00 +28°C° 0 mm 5 m/S 764 mmHg 47%
    09:00 +30°C° 0 mm 5 m/S 764 mmHg 43%
    10:00 +32°C° 0 mm 5 m/S 764 mmHg 39%
    11:00 +34°C° 0 mm 5 m/S 763 mmHg 35%
    12:00 +35°C° 0 mm 4 m/S 763 mmHg 33%
    13:00 +35°C° 0 mm 4 m/S 763 mmHg 31%
    14:00 +36°C° 0 mm 4 m/S 763 mmHg 29%
    15:00 +36°C° 0 mm 4 m/S 763 mmHg 29%
    16:00 +35°C° 0 mm 4 m/S 762 mmHg 29%
    17:00 +35°C° 0 mm 4 m/S 762 mmHg 28%
    18:00 +33°C° 0 mm 5 m/S 762 mmHg 32%
    19:00 +30°C° 0 mm 5 m/S 763 mmHg 36%
    20:00 +28°C° 0 mm 5 m/S 763 mmHg 39%
    21:00 +27°C° 0 mm 5 m/S 763 mmHg 40%
    22:00 +26°C° 0 mm 5 m/S 763 mmHg 40%
    23:00 +25°C° 0 mm 5 m/S 763 mmHg 41%

    Morgen, 26 August, Montag

    Zeit Temperatur Niederschläge Wind Luftdruck Luftfeuchtigkeit
    00:00 +25°C° 0 mm 4 m/S 763 mmHg 41%
    01:00 +23°C° 0 mm 4 m/S 764 mmHg 42%
    02:00 +22°C° 0 mm 4 m/S 764 mmHg 43%
    03:00 +21°C° 0 mm 3 m/S 764 mmHg 45%
    04:00 +20°C° 0 mm 3 m/S 764 mmHg 46%
    05:00 +20°C° 0 mm 3 m/S 764 mmHg 48%
    06:00 +21°C° 0 mm 3 m/S 764 mmHg 44%
    07:00 +23°C° 0 mm 4 m/S 764 mmHg 41%
    08:00 +26°C° 0 mm 4 m/S 764 mmHg 37%
    09:00 +28°C° 0 mm 4 m/S 764 mmHg 33%
    10:00 +30°C° 0 mm 5 m/S 764 mmHg 29%
    11:00 +32°C° 0 mm 5 m/S 764 mmHg 25%
    12:00 +33°C° 0 mm 5 m/S 764 mmHg 24%
    13:00 +34°C° 0 mm 5 m/S 763 mmHg 22%
    14:00 +34°C° 0 mm 5 m/S 763 mmHg 20%
    15:00 +34°C° 0 mm 5 m/S 763 mmHg 21%
    16:00 +34°C° 0 mm 5 m/S 762 mmHg 22%
    17:00 +33°C° 0 mm 4 m/S 762 mmHg 23%
    18:00 +30°C° 0 mm 4 m/S 762 mmHg 28%
    19:00 +28°C° 0 mm 3 m/S 762 mmHg 34%
    20:00 +26°C° 0 mm 3 m/S 762 mmHg 39%
    21:00 +25°C° 0 mm 3 m/S 762 mmHg 43%
    22:00 +24°C° 0 mm 3 m/S 763 mmHg 46%
    23:00 +24°C° 0 mm 3 m/S 763 mmHg 50%

    übermorgen, 27 August, Dienstag

    Zeit Temperatur Niederschläge Wind Luftdruck Luftfeuchtigkeit
    00:00 +22°C° 0 mm 3 m/S 763 mmHg 53%
    01:00 +21°C° 0 mm 3 m/S 763 mmHg 55%
    02:00 +21°C° 0 mm 3 m/S 763 mmHg 58%
    03:00 +20°C° 0 mm 3 m/S 763 mmHg 60%
    04:00 +20°C° 0 mm 3 m/S 763 mmHg 61%
    05:00 +20°C° 0 mm 3 m/S 763 mmHg 63%
    06:00 +22°C° 0 mm 3 m/S 763 mmHg 57%
    07:00 +25°C° 0 mm 3 m/S 763 mmHg 51%
    08:00 +27°C° 0 mm 4 m/S 763 mmHg 46%
    09:00 +28°C° 0 mm 4 m/S 763 mmHg 41%
    10:00 +30°C° 0 mm 4 m/S 763 mmHg 36%
    11:00 +33°C° 0 mm 4 m/S 763 mmHg 31%
    12:00 +33°C° 0 mm 4 m/S 763 mmHg 29%
    13:00 +34°C° 0 mm 4 m/S 762 mmHg 27%
    14:00 +35°C° 0 mm 3 m/S 762 mmHg 25%
    15:00 +35°C° 0 mm 4 m/S 762 mmHg 24%
    16:00 +34°C° 0 mm 4 m/S 761 mmHg 24%
    17:00 +34°C° 0 mm 4 m/S 761 mmHg 23%
    18:00 +32°C° 0 mm 4 m/S 761 mmHg 27%
    19:00 +29°C° 0 mm 4 m/S 762 mmHg 30%
    20:00 +26°C° 0 mm 4 m/S 762 mmHg 34%
    21:00 +25°C° 0 mm 3 m/S 762 mmHg 36%
    22:00 +24°C° 0 mm 3 m/S 762 mmHg 38%
    23:00 +22°C° 0 mm 3 m/S 763 mmHg 40%

    28 August, Mittwoch

    Zeit Temperatur Niederschläge Wind Luftdruck Luftfeuchtigkeit
    00:00 +21°C° 0 mm 3 m/S 763 mmHg 42%
    01:00 +21°C° 0 mm 3 m/S 763 mmHg 44%
    02:00 +20°C° 0 mm 2 m/S 763 mmHg 45%
    03:00 +19°C° 0 mm 3 m/S 763 mmHg 48%
    04:00 +19°C° 0 mm 3 m/S 763 mmHg 51%
    05:00 +18°C° 0 mm 3 m/S 763 mmHg 54%
    06:00 +20°C° 0 mm 3 m/S 763 mmHg 49%
    07:00 +22°C° 0 mm 3 m/S 763 mmHg 45%
    08:00 +25°C° 0 mm 3 m/S 763 mmHg 40%
    09:00 +27°C° 0 mm 3 m/S 763 mmHg 37%
    10:00 +29°C° 0 mm 4 m/S 763 mmHg 33%
    11:00 +30°C° 0 mm 4 m/S 763 mmHg 29%
    12:00 +32°C° 0 mm 4 m/S 762 mmHg 28%
    13:00 +33°C° 0 mm 4 m/S 762 mmHg 26%
    14:00 +33°C° 0 mm 4 m/S 761 mmHg 24%
    15:00 +33°C° 0 mm 4 m/S 761 mmHg 25%
    16:00 +33°C° 0 mm 4 m/S 761 mmHg 26%
    17:00 +33°C° 0 mm 4 m/S 761 mmHg 26%
    18:00 +30°C° 0 mm 4 m/S 761 mmHg 31%
    19:00 +28°C° 0 mm 3 m/S 761 mmHg 37%
    20:00 +26°C° 0 mm 3 m/S 761 mmHg 42%
    21:00 +25°C° 0 mm 3 m/S 761 mmHg 46%
    22:00 +24°C° 0 mm 3 m/S 761 mmHg 49%
    23:00 +22°C° 0 mm 3 m/S 761 mmHg 53%

    29 August, Donnerstag

    Zeit Temperatur Niederschläge Wind Luftdruck Luftfeuchtigkeit
    00:00 +21°C° 0 mm 3 m/S 761 mmHg 53%
    01:00 +21°C° 0 mm 3 m/S 761 mmHg 53%
    02:00 +20°C° 0 mm 3 m/S 761 mmHg 53%
    03:00 +19°C° 0 mm 3 m/S 761 mmHg 54%
    04:00 +19°C° 0 mm 3 m/S 761 mmHg 55%
    05:00 +18°C° 0 mm 3 m/S 761 mmHg 56%
    06:00 +19°C° 0 mm 4 m/S 761 mmHg 52%
    07:00 +21°C° 0 mm 4 m/S 761 mmHg 48%
    08:00 +22°C° 0 mm 5 m/S 761 mmHg 44%
    09:00 +25°C° 0 mm 5 m/S 761 mmHg 40%
    10:00 +27°C° 0 mm 5 m/S 761 mmHg 35%
    11:00 +29°C° 0 mm 5 m/S 762 mmHg 31%
    12:00 +29°C° 0 mm 5 m/S 761 mmHg 30%
    13:00 +30°C° 0 mm 5 m/S 761 mmHg 28%
    14:00 +30°C° 0 mm 4 m/S 761 mmHg 27%
    15:00 +30°C° 0 mm 5 m/S 761 mmHg 27%
    16:00 +29°C° 0 mm 5 m/S 761 mmHg 28%
    17:00 +28°C° 0 mm 6 m/S 761 mmHg 29%
    18:00 +26°C° 0 mm 5 m/S 761 mmHg 30%
    19:00 +23°C° 0 mm 5 m/S 761 mmHg 31%
    20:00 +21°C° 0 mm 5 m/S 761 mmHg 32%
    21:00 +20°C° 0 mm 4 m/S 762 mmHg 32%
    22:00 +19°C° 0 mm 4 m/S 762 mmHg 33%
    23:00 +18°C° 0 mm 3 m/S 762 mmHg 33%

    30 August, Freitag

    Zeit Temperatur Niederschläge Wind Luftdruck Luftfeuchtigkeit
    00:00 +17°C° 0 mm 3 m/S 762 mmHg 36%
    01:00 +16°C° 0 mm 3 m/S 763 mmHg 39%
    02:00 +14°C° 0 mm 3 m/S 763 mmHg 42%
    03:00 +14°C° 0 mm 3 m/S 763 mmHg 45%
    04:00 +13°C° 0 mm 3 m/S 763 mmHg 47%
    05:00 +12°C° 0 mm 3 m/S 763 mmHg 50%
    06:00 +14°C° 0 mm 4 m/S 763 mmHg 47%
    07:00 +17°C° 0 mm 4 m/S 763 mmHg 44%
    08:00 +17°C° 0 mm 5 m/S 764 mmHg 41%
    09:00 +20°C° 0 mm 5 m/S 764 mmHg 37%
    10:00 +22°C° 0 mm 5 m/S 764 mmHg 32%
    11:00 +23°C° 0 mm 5 m/S 764 mmHg 28%
    12:00 +25°C° 0 mm 5 m/S 764 mmHg 26%
    13:00 +26°C° 0 mm 5 m/S 763 mmHg 24%
    14:00 +27°C° 0 mm 4 m/S 763 mmHg 22%
    15:00 +26°C° 0 mm 4 m/S 763 mmHg 22%
    16:00 +26°C° 0 mm 4 m/S 763 mmHg 22%
    17:00 +26°C° 0 mm 4 m/S 762 mmHg 22%
    18:00 +24°C° 0 mm 3 m/S 763 mmHg 25%
    19:00 +21°C° 0 mm 3 m/S 763 mmHg 28%
    20:00 +18°C° 0 mm 2 m/S 763 mmHg 32%
    21:00 +18°C° 0 mm 2 m/S 763 mmHg 34%
    22:00 +17°C° 0 mm 2 m/S 763 mmHg 35%
    23:00 +16°C° 0 mm 2 m/S 764 mmHg 37%
    Mehr zeigen